Regional Weather Roundup
Issued by NWS Sterling, VA

Home | Current Version | Previous Version | Text Only | Print | Product List | Glossary On
Versions: 1 2 3 4 5 6 7 8 9 10 11 12 13 14 15 16 17 18 19 20 21 22 23 24 25 26 27 28 29 30 31 32 33 34 35 36 37 38 39 40 41 42 43 44 45 46 47 48 49 50
000
ASUS41 KLWX 241510
RWRLWX

REGIONAL WEATHER ROUNDUP
NATIONAL WEATHER SERVICE BALTIMORE MD/WASHINGTON DC
1000 AM EST TUE JAN 24 2017

Note: "FAIR" indicates few or no clouds below 12,000 feet
with no significant weather and/or obstructions to visibility.
 TC=TEMPERATURE CELSIUS

 * =Non NWS site. Station does not report precipitation (e.g. rain,
    snow, etc.), thunder, or fog.

DCZ001-MDZ009-015-VAZ040>042-051-053>054-241600-
WASHINGTON METRO

CITY           SKY/WX    TMP DP  RH WIND       PRES   REMARKS
WASHINGTON NAT MOSUNNY   43  37  79 N16G24    29.53R
DULLES         PTSUNNY   42  34  73 NW16G24   29.54R
ANDREWS AFB    PTSUNNY   42  36  79 NW21G28   29.50R
FT BELVOIR     MOSUNNY   43  35  72 NW12      29.53R
QUANTICO       PTSUNNY   45  37  73 N16G25    29.55R
COLLEGE PARK*  CLOUDY    41  34  75 NW9G18    29.52R
LEESBURG*      CLOUDY    43  37  81 NW17G24   29.56R
MANASSAS*      PTSUNNY  N/A N/A N/A N21G29    29.56R
GAITHERSBURG*  PTSUNNY   39  36  87 NW10      29.55S

$$

MDZ006>007-011-014-241600-
BALTIMORE METRO

CITY           SKY/WX    TMP DP  RH WIND       PRES   REMARKS
BWI AIRPORT    PTSUNNY   42  36  79 NW14G23   29.50R
MD SCIENCE CTR   N/A     44  33  65 MISG      29.52R
ANNAPOLIS      CLOUDY    43  35  73 NW16      29.49R
FORT MEADE*    MOSUNNY   43  36  75 NW7G20    29.53S

$$

MDZ012-015-019>023-241600-
MARYLAND EASTERN SHORE

CITY           SKY/WX    TMP DP  RH WIND       PRES   REMARKS
OCEAN CITY     CLOUDY    40  37  89 N15G23    29.41R
SALISBURY      CLOUDY    40  37  89 NW12G22   29.43R
BAY BRIDGE AP* CLOUDY    41  36  81 NW15G24   29.49S
CAMBRIDGE*     CLOUDY    39  36  87 NW15G21   29.46R
EASTON*        CLOUDY    41  36  81 N14G24    29.50R

$$

MDZ017>025-241600-
SOUTHERN MARYLAND

CITY           SKY/WX    TMP DP  RH WIND       PRES   REMARKS
PATUXENT RIVER PTSUNNY   42  37  82 NW21      29.49R
ST INIGOES     CLOUDY    42  37  82 NW8G22    29.48R
LEONARDTOWN*   MOSUNNY   41  36  81 NW6       29.50F

$$

MDZ003>005-241600-
NORTH CENTRAL MARYLAND

CITY           SKY/WX    TMP DP  RH WIND       PRES   REMARKS
FREDERICK*     MOSUNNY   43  37  81 N10G17    29.56R
HAGERSTOWN APT MOSUNNY   40  34  79 NW21      29.54S
WESTMINSTER*     N/A     37  36  93 NW9       29.51R

$$

MDZ501>502-241600-
WESTERN MARYLAND

CITY           SKY/WX    TMP DP  RH WIND       PRES   REMARKS
OAKLAND*       FOG       30  30 100 W8G17     29.57R VSB<1/4 WCI  23
CUMBERLAND*    CLOUDY    41  36  81 CALM      29.63R

$$

VAZ025>031-241600-
SHENANDOAH VALLEY

CITY           SKY/WX    TMP DP  RH WIND       PRES   REMARKS
WINCHESTER*    CLOUDY    37  34  87 NW16      29.57R WCI  28
FRONT ROYAL*   CLOUDY    41  34  75 NW9       29.56R
LURAY*         PTSUNNY   41  36  81 N13       29.57R
NEW MARKET*    CLOUDY    42  32  68 CALM      29.57R
STAUNTON*      SUNNY     39  32  77 CALM      29.60R
WAYNESBORO*    SUNNY     38  33  82 NW5       29.58R

$$

WVZ021-048>050-054>055-241600-
EASTERN WEST VIRGINIA PANHANDLE

CITY           SKY/WX    TMP DP  RH WIND       PRES   REMARKS
MARTINSBURG    CLOUDY    42  35  76 NW14      29.57R
PETERSBURG*    CLOUDY    42  37  82 CALM      29.61R

$$

VAZ036>039-050-241600-
CENTRAL FOOTHILLS

CITY           SKY/WX    TMP DP  RH WIND       PRES   REMARKS
CHARLOTTESVILL PTSUNNY   45  33  63 VRB5      29.57R
CULPEPER*      MOSUNNY   46  35  65 NW12G18   29.56R
ORANGE*          N/A     45  34  65 SW7       29.58R
GORDONSVILLE*  CLOUDY    44  36  73 SW5       29.57R
WARRENTON*     MOSUNNY   45  33  64 NW13G22   29.54R

$$

VAZ055>057-241600-
NORTH AND CENTRAL PIEDMONT

CITY           SKY/WX    TMP DP  RH WIND       PRES   REMARKS
FREDERICKSBRG* MOSUNNY   44  37  75 NW14G21   29.55R
STAFFORD*      MOSUNNY   43  37  79 NW17G26   29.59R

$$

NCZ024-NYZ072-PAZ021-071-VAZ022-071-241600-
OTHER REGIONAL OBSERVATIONS

CITY           SKY/WX    TMP DP  RH WIND       PRES   REMARKS
NEW YORK CITY  MIX PCPN  36  35  96 NE10G21   29.38S FOG     WCI  28
PHILADELPHIA   LGT RAIN  39  35  86 N15G25    29.43S
PITTSBURGH     LGT RAIN  39  38  96 NW10      29.66R
ROANOKE        MOSUNNY   49  34  56 NW12G33   29.67R
RICHMOND       MOSUNNY   44  35  70 NW21G29   29.56R
RALEIGH        MOSUNNY   50  38  63 NW9       29.63R

$$

ANZ530>537-241600-
MARINE OBSERVATIONS

STATION/POSITION TIME  TEMP    WIND        PRES
                       AIR SEA DIR/SP/G
                 (UTC) (F)     (DEG/KT/KT) (MB)
THOMAS PT LIGHT  1500   41 40  340/ 19/ 25   N/A
BALT KEY BRIDGE  1448   41     320/ 19/ 23  998.6R
COVE POINT       1448   40     350/ 21/ 27  998.8R
LEWISETTA        1448   41 44  340/ 11/ 14  998.6R
SOLOMONS ISLAND  1442          320/ 14/ 19   N/A
PINEY POINT      1448          350/ 15/ 16   N/A

$$




USA.gov is the U.S. government's official web portal to all federal, state and local government web resources and services.